This is the latest recevied weather packets stored in our database for station/object KC9NPJ-13. If no packets are shown the sender has not sent any weather packets the latest 10 day(s).
| Time | Temp. | Humidity | Pressure | Rain* | Wind** | Luminosity | Snow |
|---|---|---|---|---|---|---|---|
| 1777256978 | 19.44° C | 66% | 1013 hPa | 0 mm | - | - | - |
| 1777256678 | 19.44° C | 66% | 1013 hPa | 0 mm | - | - | - |
| 1777256378 | 19.44° C | 67% | 1013 hPa | 0 mm | - | - | - |
| 1777256078 | 19.44° C | 67% | 1013.1 hPa | 0 mm | - | - | - |
| 1777255778 | 18.89° C | 68% | 1013 hPa | 0 mm | - | - | - |
| 1777255478 | 18.89° C | 68% | 1013 hPa | 0 mm | - | - | - |
| 1777255178 | 19.44° C | 67% | 1013 hPa | 0 mm | - | - | - |
| 1777254878 | 19.44° C | 66% | 1012.8 hPa | 0 mm | - | - | - |
| 1777254578 | 20° C | 65% | 1012.9 hPa | 0 mm | - | - | - |
| 1777254278 | 20° C | 63% | 1012.9 hPa | 0 mm | - | - | - |
| 1777253978 | 20.56° C | 62% | 1013.1 hPa | 0 mm | - | - | - |
| 1777253678 | 20.56° C | 61% | 1012.9 hPa | 0 mm | - | - | - |
| 1777253378 | 20.56° C | 60% | 1013 hPa | 0 mm | - | - | - |
| 1777253078 | 21.11° C | 60% | 1012.8 hPa | 0 mm | - | - | - |
| 1777252778 | 21.11° C | 59% | 1012.6 hPa | 0 mm | - | - | - |
| 1777252478 | 21.11° C | 58% | 1012.4 hPa | 0 mm | - | - | - |
| 1777252178 | 21.67° C | 58% | 1012.5 hPa | 0 mm | - | - | - |
| 1777251878 | 21.67° C | 58% | 1012.2 hPa | 0 mm | - | - | - |
| 1777251578 | 21.67° C | 57% | 1012.2 hPa | 0 mm | - | - | - |
| 1777251278 | 21.67° C | 56% | 1012.2 hPa | 0 mm | - | - | - |
| 1777250978 | 22.22° C | 56% | 1012.3 hPa | 0 mm | - | - | - |
| 1777250678 | 22.22° C | 56% | 1012.4 hPa | 0 mm | - | - | - |
| 1777250378 | 22.22° C | 55% | 1012.4 hPa | 0 mm | - | - | - |
| 1777250078 | 22.78° C | 54% | 1012.4 hPa | 0 mm | - | - | - |
| 1777249778 | 22.78° C | 54% | 1012.4 hPa | 0 mm | - | - | - |
* Rain latest hour (hover to see other rain measurements)
** Current wind speed in m/s (hover to see current wind gust speed)